LRC632 MROC-MMMX

Flight info

Callsign LRC632
Flight time N/A
Altitude 36000
Route NANJO4U ULAPO DCT ALTEG/N0356F180 G436 CAT/N0451F340 UA317 AMESA/N0454F360 UA317 TAP/N0354F180 V1 IZT/N0451F360 UT157 LARLO LARLO4A
Aircraft A20N/M-SDE2E3FGHIRWXY/LB1

Departure

Time 2026-05-04 18:36
Airport Juan Santamaría International Airport (MROC)

Arrival

Time N/A
Airport Mexico City Benito Juárez International Airport (MMMX)
Time Latitude Longitude Altitude Speed Heading
2026-05-04 18:13 9.99690 -84.20489 3096 ft 0 kts 339°
2026-05-04 18:27 9.99686 -84.20487 3096 ft 2 kts 339°
2026-05-04 18:28 9.99672 -84.20481 3096 ft 2 kts 339°
2026-05-04 18:28 9.99658 -84.20476 3096 ft 2 kts 360°
2026-05-04 18:28 9.99643 -84.20480 3096 ft 2 kts 33°
2026-05-04 18:28 9.99633 -84.20491 3096 ft 2 kts 68°
2026-05-04 18:29 9.99629 -84.20506 3096 ft 1 kts 68°
2026-05-04 18:29 9.99628 -84.20509 3096 ft 0 kts 67°
2026-05-04 18:29 9.99628 -84.20508 3096 ft 0 kts 67°
2026-05-04 18:29 9.99629 -84.20506 3096 ft 0 kts 67°
2026-05-04 18:30 9.99629 -84.20505 3096 ft 0 kts 67°
2026-05-04 18:30 9.99630 -84.20501 3096 ft 0 kts 71°
2026-05-04 18:31 9.99631 -84.20498 3096 ft 0 kts 70°
2026-05-04 18:31 9.99638 -84.20476 3096 ft 8 kts 80°
2026-05-04 18:31 9.99603 -84.20413 3096 ft 14 kts 144°
2026-05-04 18:32 9.99614 -84.20283 3097 ft 29 kts 69°
2026-05-04 18:32 9.99704 -84.20127 3097 ft 19 kts
2026-05-04 18:32 9.99779 -84.20106 3097 ft 5 kts 66°
2026-05-04 18:32 9.99784 -84.20091 3097 ft 2 kts 71°
2026-05-04 18:33 9.99795 -84.20061 3097 ft 7 kts 70°
2026-05-04 18:33 9.99801 -84.20023 3098 ft 0 kts 99°
2026-05-04 18:33 9.99789 -84.19997 3098 ft 11 kts 130°
2026-05-04 18:34 9.99722 -84.19991 3098 ft 10 kts 246°
2026-05-04 18:34 9.99708 -84.20032 3097 ft 0 kts 250°
2026-05-04 18:35 9.99660 -84.20160 3097 ft 52 kts 249°
2026-05-04 18:36 9.99454 -84.20709 3096 ft 113 kts 250°
2026-05-04 18:36 9.99108 -84.21635 3109 ft 163 kts 249°
2026-05-04 18:36 9.98700 -84.22713 3616 ft 165 kts 249°
2026-05-04 18:36 9.98298 -84.23808 4257 ft 167 kts 250°
2026-05-04 18:37 9.98025 -84.24928 4858 ft 168 kts 272°
2026-05-04 18:37 9.98513 -84.26043 5166 ft 188 kts 313°
2026-05-04 18:37 9.99619 -84.26884 5492 ft 205 kts 321°
2026-05-04 18:37 10.00824 -84.27784 5799 ft 223 kts 320°
2026-05-04 18:38 10.02123 -84.28782 6091 ft 244 kts 320°
2026-05-04 18:38 10.03500 -84.29848 6724 ft 250 kts 320°
2026-05-04 18:38 10.04873 -84.30912 7511 ft 250 kts 320°
2026-05-04 18:38 10.06260 -84.31994 8249 ft 252 kts 320°
2026-05-04 18:39 10.07662 -84.33079 8943 ft 254 kts 320°
2026-05-04 18:39 10.09075 -84.34170 9627 ft 258 kts 320°
2026-05-04 18:39 10.10484 -84.35268 10313 ft 260 kts 317°
2026-05-04 18:39 10.11680 -84.36617 10984 ft 259 kts 301°
2026-05-04 18:40 10.12626 -84.38213 11475 ft 270 kts 297°
2026-05-04 18:40 10.13575 -84.39907 11807 ft 286 kts 297°
2026-05-04 18:40 10.14610 -84.41723 12133 ft 303 kts 298°
2026-05-04 18:40 10.15711 -84.43611 12435 ft 319 kts 299°
2026-05-04 18:41 10.16889 -84.45597 12727 ft 335 kts 299°
2026-05-04 18:41 10.18123 -84.47656 13103 ft 347 kts 300°
2026-05-04 18:41 10.19382 -84.49740 13684 ft 351 kts 300°
2026-05-04 18:41 10.20672 -84.51868 14331 ft 353 kts 300°
2026-05-04 18:42 10.21974 -84.54014 14956 ft 357 kts 300°
2026-05-04 18:42 10.23266 -84.56148 15588 ft 361 kts 300°
2026-05-04 18:42 10.24602 -84.58353 16235 ft 364 kts 300°
2026-05-04 18:42 10.25914 -84.60517 16826 ft 367 kts 300°
2026-05-04 18:43 10.27260 -84.62740 17411 ft 371 kts 300°
2026-05-04 18:43 10.28619 -84.64980 18008 ft 374 kts 300°
2026-05-04 18:43 10.29996 -84.67250 18602 ft 377 kts 300°
2026-05-04 18:43 10.31363 -84.69506 19171 ft 381 kts 300°
2026-05-04 18:44 10.32754 -84.71798 19729 ft 382 kts 300°
2026-05-04 18:44 10.33683 -84.73331 20058 ft 384 kts 300°
2026-05-04 18:44 10.35572 -84.76446 20716 ft 390 kts 300°
2026-05-04 18:44 10.37003 -84.78805 21245 ft 393 kts 300°
2026-05-04 18:45 10.38422 -84.81146 21729 ft 395 kts 300°
2026-05-04 18:45 10.39860 -84.83521 22201 ft 399 kts 300°
2026-05-04 18:45 10.41326 -84.85941 22698 ft 402 kts 300°
2026-05-04 18:45 10.42798 -84.88371 23189 ft 405 kts 300°
2026-05-04 18:46 10.44270 -84.90802 23662 ft 408 kts 300°
2026-05-04 18:46 10.45758 -84.93261 24116 ft 410 kts 300°
2026-05-04 18:46 10.47265 -84.95750 24552 ft 414 kts 300°
2026-05-04 18:46 10.48762 -84.98225 24974 ft 416 kts 300°
2026-05-04 18:47 10.50298 -85.00764 25389 ft 419 kts 300°
2026-05-04 18:47 10.51811 -85.03267 25783 ft 422 kts 300°
2026-05-04 18:47 10.53351 -85.05815 26177 ft 424 kts 300°
2026-05-04 18:47 10.54901 -85.08379 26563 ft 427 kts 300°
2026-05-04 18:48 10.56450 -85.10942 26932 ft 429 kts 300°
2026-05-04 18:48 10.58025 -85.13550 27292 ft 432 kts 300°
2026-05-04 18:48 10.59613 -85.16180 27644 ft 434 kts 300°
2026-05-04 18:48 10.61190 -85.18791 27993 ft 436 kts 300°
2026-05-04 18:49 10.62769 -85.21406 28426 ft 436 kts 300°
2026-05-04 18:49 10.64339 -85.24007 28908 ft 434 kts 300°
2026-05-04 18:49 10.65925 -85.26633 29365 ft 432 kts 300°
2026-05-04 18:49 10.67500 -85.29240 29799 ft 432 kts 300°
2026-05-04 18:50 10.69052 -85.31811 30220 ft 431 kts 300°
2026-05-04 18:50 10.70623 -85.34415 30638 ft 430 kts 300°
2026-05-04 18:50 10.72192 -85.37017 31051 ft 429 kts 300°
2026-05-04 18:50 10.73727 -85.39564 31444 ft 428 kts 300°
2026-05-04 18:51 10.75283 -85.42146 31829 ft 427 kts 300°
2026-05-04 18:51 10.76839 -85.44730 32200 ft 426 kts 300°
2026-05-04 18:51 10.78383 -85.47293 32554 ft 426 kts 300°
2026-05-04 18:51 10.79926 -85.49857 32898 ft 425 kts 300°
2026-05-04 18:52 10.81477 -85.52434 33226 ft 424 kts 300°
2026-05-04 18:52 10.83018 -85.54994 33541 ft 424 kts 300°
2026-05-04 18:52 10.84537 -85.57520 33843 ft 423 kts 300°
2026-05-04 18:52 10.86071 -85.60071 34137 ft 422 kts 300°
2026-05-04 18:53 10.87611 -85.62632 34401 ft 423 kts 300°
2026-05-04 18:53 10.89133 -85.65163 34619 ft 423 kts 300°
2026-05-04 18:53 10.90679 -85.67738 34828 ft 424 kts 300°
2026-05-04 18:53 10.92209 -85.70285 35035 ft 425 kts 300°
2026-05-04 18:54 10.93758 -85.72865 35240 ft 426 kts 300°
2026-05-04 18:54 10.95311 -85.75451 35432 ft 427 kts 300°
2026-05-04 18:54 10.96846 -85.78009 35608 ft 428 kts 300°
2026-05-04 18:54 10.98410 -85.80616 35785 ft 428 kts 300°
2026-05-04 18:55 10.99946 -85.83179 35924 ft 430 kts 300°
2026-05-04 18:55 11.04687 -85.91089 35938 ft 443 kts 300°
2026-05-04 18:56 11.07911 -85.96468 35939 ft 445 kts 300°
2026-05-04 18:56 11.11151 -86.01875 35938 ft 445 kts 300°
2026-05-04 18:57 11.14371 -86.07252 35937 ft 445 kts 300°
2026-05-04 18:57 11.17599 -86.12645 35937 ft 445 kts 300°
2026-05-04 18:58 11.20811 -86.18014 35937 ft 445 kts 300°
2026-05-04 18:58 11.24027 -86.23394 35937 ft 445 kts 300°
2026-05-04 18:59 11.27251 -86.28780 35937 ft 445 kts 300°
2026-05-04 18:59 11.30468 -86.34162 35937 ft 445 kts 300°
2026-05-04 19:00 11.33687 -86.39552 35937 ft 445 kts 300°
2026-05-04 19:00 11.36889 -86.44919 35937 ft 445 kts 300°
2026-05-04 19:01 11.40101 -86.50304 35937 ft 445 kts 300°
2026-05-04 19:01 11.43315 -86.55697 35937 ft 445 kts 300°
2026-05-04 19:02 11.46534 -86.61100 35937 ft 445 kts 300°
2026-05-04 19:02 11.49737 -86.66480 35937 ft 445 kts 300°
2026-05-04 19:03 11.52937 -86.71860 35937 ft 445 kts 300°
2026-05-04 19:03 11.56154 -86.77264 35936 ft 445 kts 300°
2026-05-04 19:04 11.59353 -86.82645 35937 ft 445 kts 300°
2026-05-04 19:04 11.62553 -86.88029 35937 ft 445 kts 300°
2026-05-04 19:05 11.65750 -86.93412 35936 ft 445 kts 300°
2026-05-04 19:05 11.68967 -86.98834 35936 ft 445 kts 300°
2026-05-04 19:06 11.72155 -87.04209 35936 ft 445 kts 300°
2026-05-04 19:06 11.75364 -87.09621 35936 ft 445 kts 300°
2026-05-04 19:07 11.78548 -87.14996 35936 ft 445 kts 300°
2026-05-04 19:07 11.81755 -87.20411 35936 ft 445 kts 300°
2026-05-04 19:08 11.84961 -87.25828 35936 ft 445 kts 300°
2026-05-04 19:08 11.88137 -87.31198 35937 ft 445 kts 300°
2026-05-04 19:09 11.91332 -87.36603 35936 ft 445 kts 300°
2026-05-04 19:09 11.94524 -87.42007 35936 ft 445 kts 300°
2026-05-04 19:10 11.97725 -87.47427 35936 ft 445 kts 300°
2026-05-04 19:10 12.00931 -87.52859 35936 ft 445 kts 300°
2026-05-04 19:11 12.04105 -87.58238 35936 ft 445 kts 300°
2026-05-04 19:11 12.07285 -87.63637 35936 ft 445 kts 300°
2026-05-04 19:12 12.12095 -87.71803 35936 ft 445 kts 299°
2026-05-04 19:13 12.15296 -87.77242 35937 ft 445 kts 299°
2026-05-04 19:13 12.18483 -87.82658 35937 ft 445 kts 299°
2026-05-04 19:14 12.21671 -87.88079 35936 ft 445 kts 299°
2026-05-04 19:14 12.24841 -87.93472 35936 ft 445 kts 299°
2026-05-04 19:15 12.28019 -87.98884 35936 ft 445 kts 299°
2026-05-04 19:15 12.31202 -88.04308 35936 ft 445 kts 299°
2026-05-04 19:16 12.34388 -88.09739 35936 ft 445 kts 299°
2026-05-04 19:16 12.37571 -88.15168 35936 ft 445 kts 299°
2026-05-04 19:17 12.40737 -88.20570 35936 ft 445 kts 299°
2026-05-04 19:17 12.43927 -88.26019 35936 ft 445 kts 300°
2026-05-04 19:18 12.47094 -88.31424 35936 ft 445 kts 300°
2026-05-04 19:18 12.50275 -88.36860 35936 ft 445 kts 300°
2026-05-04 19:19 12.53451 -88.42288 35936 ft 445 kts 300°
2026-05-04 19:19 12.56621 -88.47711 35936 ft 445 kts 300°
2026-05-04 19:20 12.59786 -88.53132 35936 ft 445 kts 300°
2026-05-04 19:20 12.62977 -88.58599 35936 ft 445 kts 300°
2026-05-04 19:21 12.66128 -88.64002 35936 ft 445 kts 300°
2026-05-04 19:21 12.69305 -88.69453 35936 ft 445 kts 299°
2026-05-04 19:22 12.72473 -88.74890 35936 ft 445 kts 299°
2026-05-04 19:22 12.75624 -88.80305 35936 ft 445 kts 299°
2026-05-04 19:23 12.78812 -88.85783 35936 ft 445 kts 299°
2026-05-04 19:23 12.81962 -88.91199 35936 ft 445 kts 299°
2026-05-04 19:24 12.85134 -88.96658 35936 ft 445 kts 299°
2026-05-04 19:24 12.88292 -89.02094 35936 ft 445 kts 299°
2026-05-04 19:25 12.91458 -89.07549 35936 ft 445 kts 299°
2026-05-04 19:25 12.94626 -89.13011 35936 ft 445 kts 299°
2026-05-04 19:26 12.97764 -89.18424 35936 ft 445 kts 299°
2026-05-04 19:26 13.00935 -89.23898 35936 ft 445 kts 299°
2026-05-04 19:27 13.04081 -89.29332 35936 ft 445 kts 299°
2026-05-04 19:27 13.07247 -89.34802 35936 ft 445 kts 299°
2026-05-04 19:28 13.10387 -89.40233 35936 ft 445 kts 299°
2026-05-04 19:28 13.13611 -89.45812 35936 ft 445 kts 299°
2026-05-04 19:29 13.16750 -89.51247 35936 ft 445 kts 299°
2026-05-04 19:29 13.19893 -89.56692 35936 ft 445 kts 299°
2026-05-04 19:30 13.23063 -89.62189 35936 ft 445 kts 299°
2026-05-04 19:30 13.26215 -89.67656 35937 ft 445 kts 299°
2026-05-04 19:31 13.29359 -89.73112 35937 ft 445 kts 299°
2026-05-04 19:31 13.32504 -89.78574 35937 ft 445 kts 299°
2026-05-04 19:32 13.35662 -89.84063 35937 ft 445 kts 299°
2026-05-04 19:32 13.38806 -89.89530 35937 ft 445 kts 299°
2026-05-04 19:33 13.41936 -89.94977 35937 ft 445 kts 299°
2026-05-04 19:33 13.45069 -90.00433 35937 ft 445 kts 299°
2026-05-04 19:34 13.48210 -90.05901 35937 ft 445 kts 299°
2026-05-04 19:34 13.51344 -90.11366 35937 ft 445 kts 299°
2026-05-04 19:35 13.54500 -90.16874 35937 ft 445 kts 299°
2026-05-04 19:35 13.57633 -90.22344 35937 ft 445 kts 299°
2026-05-04 19:36 13.60766 -90.27819 35936 ft 445 kts 299°
2026-05-04 19:36 13.63882 -90.33266 35936 ft 445 kts 299°
2026-05-04 19:37 13.67030 -90.38770 35936 ft 445 kts 299°
2026-05-04 19:37 13.70155 -90.44241 35936 ft 445 kts 299°
2026-05-04 19:38 13.73274 -90.49703 35937 ft 445 kts 299°
2026-05-04 19:38 13.76394 -90.55173 35936 ft 445 kts 299°
2026-05-04 19:39 13.79521 -90.60660 35936 ft 445 kts 299°
2026-05-04 19:39 13.82665 -90.66178 35937 ft 444 kts 299°
2026-05-04 19:40 13.85792 -90.71671 35937 ft 445 kts 299°
2026-05-04 19:40 13.88916 -90.77161 35937 ft 445 kts 299°
2026-05-04 19:41 13.92032 -90.82639 35937 ft 445 kts 299°
2026-05-04 19:41 13.95142 -90.88111 35938 ft 445 kts 299°
2026-05-04 19:42 13.98273 -90.93624 35938 ft 445 kts 299°
2026-05-04 19:42 14.01382 -90.99105 35939 ft 445 kts 299°
2026-05-04 19:43 14.04516 -91.04632 35940 ft 445 kts 299°
2026-05-04 19:43 14.07637 -91.10139 35942 ft 445 kts 299°
2026-05-04 19:44 14.10739 -91.15616 35943 ft 445 kts 299°
2026-05-04 19:44 14.13895 -91.21192 35944 ft 445 kts 299°
2026-05-04 19:45 14.16999 -91.26678 35942 ft 445 kts 299°
2026-05-04 19:45 14.20114 -91.32190 35943 ft 445 kts 299°
2026-05-04 19:46 14.23223 -91.37694 35943 ft 445 kts 299°
2026-05-04 19:46 14.26340 -91.43216 35944 ft 445 kts 299°
2026-05-04 19:47 14.29445 -91.48721 35946 ft 445 kts 299°
2026-05-04 19:47 14.32554 -91.54235 35947 ft 445 kts 299°
2026-05-04 19:48 14.35661 -91.59751 35948 ft 445 kts 299°
2026-05-04 19:48 14.38784 -91.65299 35949 ft 445 kts 298°
2026-05-04 19:49 14.41877 -91.70798 35949 ft 445 kts 298°
2026-05-04 19:49 14.44977 -91.76311 35949 ft 445 kts 298°
2026-05-04 19:50 14.48079 -91.81838 35948 ft 445 kts 298°
2026-05-04 19:50 14.51184 -91.87370 35947 ft 445 kts 298°
2026-05-04 19:51 14.54279 -91.92888 35950 ft 445 kts 298°
2026-05-04 19:51 14.57375 -91.98412 35949 ft 445 kts 298°
2026-05-04 19:52 14.60462 -92.03923 35946 ft 445 kts 298°
2026-05-04 19:52 14.63554 -92.09450 35946 ft 445 kts 298°
2026-05-04 19:53 14.66645 -92.14977 35945 ft 445 kts 298°
2026-05-04 19:53 14.69740 -92.20517 35944 ft 445 kts 298°
2026-05-04 19:54 14.72832 -92.26060 35943 ft 445 kts 298°
2026-05-04 19:54 14.75930 -92.31620 35941 ft 445 kts 298°
2026-05-04 19:55 14.79030 -92.37157 35942 ft 445 kts 300°
2026-05-04 19:55 14.82368 -92.42551 35943 ft 445 kts 301°
2026-05-04 19:56 14.85736 -92.47920 35941 ft 445 kts 302°
2026-05-04 19:56 14.89097 -92.53289 35938 ft 445 kts 301°
2026-05-04 19:57 14.92444 -92.58649 35937 ft 445 kts 301°
2026-05-04 19:57 14.95813 -92.64054 35937 ft 445 kts 301°
2026-05-04 19:58 14.99141 -92.69400 35937 ft 445 kts 301°
2026-05-04 19:58 15.02509 -92.74804 35937 ft 445 kts 301°
2026-05-04 19:59 15.05867 -92.80175 35938 ft 445 kts 301°
2026-05-04 19:59 15.09237 -92.85581 35938 ft 445 kts 301°
2026-05-04 20:00 15.12628 -92.91034 35937 ft 445 kts 301°
2026-05-04 20:00 15.15985 -92.96442 35937 ft 445 kts 301°
2026-05-04 20:01 15.19323 -93.01820 35937 ft 445 kts 301°
2026-05-04 20:01 15.22660 -93.07201 35937 ft 445 kts 301°
2026-05-04 20:02 15.26013 -93.12609 35937 ft 445 kts 301°
2026-05-04 20:02 15.29340 -93.17979 35937 ft 445 kts 301°
2026-05-04 20:03 15.32686 -93.23389 35937 ft 445 kts 301°
2026-05-04 20:03 15.36007 -93.28760 35936 ft 445 kts 301°
2026-05-04 20:04 15.39352 -93.34166 35936 ft 445 kts 301°
2026-05-04 20:04 15.42697 -93.39580 35937 ft 445 kts 301°
2026-05-04 20:05 15.46019 -93.44961 35937 ft 445 kts 301°
2026-05-04 20:05 15.49357 -93.50373 35936 ft 445 kts 301°
2026-05-04 20:06 15.52696 -93.55792 35936 ft 445 kts 301°
2026-05-04 20:06 15.56014 -93.61180 35936 ft 445 kts 301°
2026-05-04 20:07 15.59358 -93.66616 35937 ft 445 kts 301°
2026-05-04 20:07 15.62686 -93.72029 35936 ft 445 kts 301°
2026-05-04 20:08 15.66006 -93.77434 35936 ft 445 kts 301°
2026-05-04 20:08 15.69317 -93.82828 35936 ft 445 kts 301°
2026-05-04 20:09 15.72654 -93.88275 35936 ft 445 kts 301°
2026-05-04 20:09 15.75951 -93.93660 35936 ft 445 kts 301°
2026-05-04 20:10 15.79267 -93.99075 35936 ft 445 kts 301°
2026-05-04 20:10 15.82602 -94.04501 35936 ft 445 kts 301°
2026-05-04 20:11 15.85939 -94.09935 35936 ft 445 kts 301°
2026-05-04 20:11 15.89236 -94.15323 35936 ft 445 kts 301°
2026-05-04 20:12 15.92550 -94.20750 35936 ft 445 kts 301°
2026-05-04 20:12 15.95875 -94.26198 35936 ft 445 kts 301°
2026-05-04 20:13 15.99198 -94.31646 35936 ft 445 kts 301°
2026-05-04 20:13 16.01594 -94.35573 35936 ft 445 kts 301°
2026-05-04 20:14 16.04180 -94.39816 35937 ft 445 kts 301°
2026-05-04 20:14 16.07477 -94.45232 35937 ft 445 kts 301°
2026-05-04 20:15 16.10805 -94.50700 35937 ft 445 kts 301°
2026-05-04 20:15 16.14108 -94.56128 35938 ft 445 kts 301°
2026-05-04 20:16 16.17457 -94.61636 35938 ft 445 kts 301°
2026-05-04 20:16 16.20785 -94.67117 35938 ft 445 kts 301°
2026-05-04 20:17 16.24122 -94.72619 35937 ft 445 kts 301°
2026-05-04 20:17 16.27424 -94.78066 35937 ft 445 kts 301°
2026-05-04 20:18 16.30743 -94.83549 35938 ft 445 kts 301°
2026-05-04 20:18 16.34052 -94.89020 35938 ft 445 kts 301°
2026-05-04 20:19 16.37367 -94.94506 35939 ft 445 kts 301°
2026-05-04 20:19 16.40670 -94.99980 35939 ft 445 kts 301°
2026-05-04 20:20 16.43984 -95.05470 35942 ft 445 kts 301°
2026-05-04 20:20 16.47249 -95.11004 35946 ft 445 kts 299°
2026-05-04 20:21 16.50336 -95.16605 35950 ft 445 kts 298°
2026-05-04 20:21 16.54937 -95.25009 35967 ft 445 kts 298°
2026-05-04 20:22 16.58004 -95.30616 35982 ft 445 kts 298°
2026-05-04 20:22 16.61081 -95.36253 35998 ft 445 kts 298°
2026-05-04 20:23 16.64137 -95.41858 36017 ft 445 kts 298°
2026-05-04 20:23 16.67212 -95.47497 36039 ft 445 kts 298°
2026-05-04 20:24 16.70301 -95.53165 36062 ft 445 kts 298°
2026-05-04 20:24 16.73347 -95.58758 36077 ft 445 kts 298°
2026-05-04 20:25 16.76404 -95.64377 36080 ft 445 kts 298°
2026-05-04 20:25 16.79498 -95.70077 36069 ft 445 kts 298°
2026-05-04 20:26 16.82549 -95.75701 36060 ft 445 kts 298°
2026-05-04 20:26 16.85630 -95.81372 36062 ft 444 kts 298°
2026-05-04 20:27 16.88697 -95.87009 36072 ft 445 kts 298°
2026-05-04 20:27 16.91747 -95.92630 36086 ft 445 kts 298°
2026-05-04 20:28 16.94792 -95.98252 36103 ft 445 kts 298°
2026-05-04 20:28 16.97831 -96.03876 36121 ft 445 kts 298°
2026-05-04 20:29 17.00876 -96.09514 36132 ft 445 kts 298°
2026-05-04 20:29 17.03915 -96.15143 36136 ft 445 kts 298°
2026-05-04 20:30 17.06980 -96.20826 36136 ft 445 kts 298°
2026-05-04 20:30 17.10037 -96.26501 36135 ft 445 kts 298°
2026-05-04 20:31 17.13102 -96.32199 36134 ft 445 kts 298°
2026-05-04 20:31 17.16139 -96.37843 36139 ft 445 kts 298°
2026-05-04 20:32 17.19196 -96.43508 36150 ft 451 kts 298°
2026-05-04 20:32 17.22315 -96.49303 36165 ft 456 kts 298°
2026-05-04 20:33 17.25441 -96.55119 36180 ft 456 kts 298°
2026-05-04 20:33 17.28546 -96.60904 36189 ft 456 kts 298°
2026-05-04 20:34 17.31696 -96.66775 36190 ft 456 kts 297°
2026-05-04 20:34 17.34846 -96.72650 36187 ft 456 kts 297°
2026-05-04 20:35 17.37938 -96.78425 36181 ft 456 kts 297°
2026-05-04 20:35 17.41050 -96.84246 36177 ft 456 kts 297°
2026-05-04 20:36 17.44160 -96.90064 36177 ft 456 kts 297°
2026-05-04 20:36 17.47256 -96.95866 36177 ft 456 kts 297°
2026-05-04 20:37 17.50365 -97.01701 36181 ft 456 kts 297°
2026-05-04 20:37 17.53457 -97.07507 36173 ft 456 kts 297°
2026-05-04 20:38 17.56602 -97.13322 36164 ft 456 kts 300°
2026-05-04 20:38 17.60190 -97.18836 36164 ft 458 kts 306°
2026-05-04 20:39 17.64354 -97.23956 36173 ft 459 kts 312°
2026-05-04 20:39 17.68936 -97.28676 36185 ft 460 kts 314°
2026-05-04 20:40 17.73589 -97.33354 36188 ft 460 kts 314°
2026-05-04 20:40 17.78202 -97.37998 36184 ft 460 kts 314°
2026-05-04 20:41 17.82850 -97.42691 36174 ft 459 kts 314°
2026-05-04 20:41 17.87483 -97.47372 36169 ft 460 kts 314°
2026-05-04 20:42 17.92082 -97.52026 36169 ft 460 kts 314°
2026-05-04 20:42 17.96726 -97.56730 36164 ft 460 kts 314°
2026-05-04 20:43 18.01338 -97.61404 36158 ft 460 kts 314°
2026-05-04 20:43 18.06008 -97.66142 36149 ft 460 kts 314°
2026-05-04 20:44 18.10642 -97.70849 36138 ft 460 kts 314°
2026-05-04 20:44 18.15322 -97.75609 36127 ft 460 kts 314°
2026-05-04 20:45 18.19981 -97.80352 36117 ft 460 kts 314°
2026-05-04 20:45 18.24622 -97.85075 36106 ft 460 kts 314°
2026-05-04 20:46 18.29234 -97.89761 36100 ft 460 kts 314°
2026-05-04 20:46 18.33829 -97.94437 36102 ft 460 kts 314°
2026-05-04 20:47 18.38423 -97.99122 35721 ft 453 kts 314°
2026-05-04 20:47 18.40415 -98.01157 35223 ft 448 kts 314°
2026-05-04 20:47 18.42669 -98.03454 34599 ft 447 kts 314°
2026-05-04 20:48 18.44890 -98.05714 33951 ft 447 kts 314°
2026-05-04 20:48 18.47118 -98.07986 33282 ft 446 kts 314°
2026-05-04 20:48 18.49348 -98.10264 32604 ft 446 kts 314°
2026-05-04 20:48 18.51561 -98.12527 31919 ft 447 kts 314°
2026-05-04 20:49 18.53809 -98.14828 31211 ft 447 kts 314°
2026-05-04 20:49 18.56027 -98.17097 30503 ft 447 kts 314°
2026-05-04 20:49 18.58250 -98.19373 29786 ft 447 kts 314°
2026-05-04 20:49 18.60492 -98.21671 29046 ft 448 kts 314°
2026-05-04 20:50 18.62695 -98.23932 28307 ft 448 kts 314°
2026-05-04 20:50 18.64952 -98.26248 27550 ft 449 kts 314°
2026-05-04 20:50 18.67184 -98.28538 27029 ft 443 kts 314°
2026-05-04 20:50 18.69350 -98.30824 26524 ft 437 kts 310°
2026-05-04 20:51 18.71079 -98.33398 26024 ft 429 kts 297°
2026-05-04 20:51 18.72245 -98.36245 25471 ft 424 kts 286°
2026-05-04 20:51 18.72912 -98.39253 24915 ft 419 kts 280°
2026-05-04 20:51 18.73457 -98.42289 24351 ft 416 kts 279°
2026-05-04 20:52 18.73976 -98.45247 23796 ft 414 kts 279°
2026-05-04 20:52 18.74505 -98.48239 23236 ft 411 kts 280°
2026-05-04 20:52 18.75032 -98.51185 22677 ft 409 kts 280°
2026-05-04 20:52 18.75561 -98.54118 22121 ft 406 kts 280°
2026-05-04 20:53 18.76081 -98.56993 21572 ft 404 kts 280°
2026-05-04 20:53 18.76613 -98.59891 21022 ft 401 kts 282°
2026-05-04 20:53 18.77610 -98.62606 20540 ft 399 kts 302°
2026-05-04 20:53 18.79497 -98.64741 20142 ft 392 kts 318°
2026-05-04 20:54 18.81587 -98.66602 19764 ft 387 kts 317°
2026-05-04 20:54 18.83620 -98.68443 19401 ft 385 kts 317°
2026-05-04 20:54 18.85629 -98.70302 19041 ft 382 kts 316°
2026-05-04 20:54 18.87625 -98.72179 18675 ft 380 kts 316°
2026-05-04 20:55 18.89579 -98.74034 18262 ft 378 kts 316°
2026-05-04 20:55 18.91529 -98.75895 17815 ft 374 kts 316°
2026-05-04 20:55 18.93445 -98.77731 17360 ft 371 kts 316°
2026-05-04 20:55 18.95350 -98.79554 16898 ft 369 kts 316°
2026-05-04 20:56 18.97227 -98.81353 16438 ft 367 kts 316°
2026-05-04 20:56 18.99129 -98.83178 15967 ft 364 kts 316°
2026-05-04 20:56 19.00998 -98.84974 15500 ft 363 kts 316°
2026-05-04 20:56 19.02851 -98.86756 15087 ft 357 kts 316°
2026-05-04 20:57 19.04658 -98.88496 14901 ft 336 kts 315°
2026-05-04 20:57 19.06326 -98.90098 14760 ft 313 kts 315°
2026-05-04 20:57 19.07893 -98.91604 14615 ft 292 kts 315°
2026-05-04 20:57 19.09360 -98.93021 14490 ft 280 kts 315°
2026-05-04 20:58 19.10742 -98.94360 14374 ft 269 kts 315°
2026-05-04 20:58 19.12103 -98.95678 14268 ft 263 kts 315°
2026-05-04 20:58 19.13473 -98.97004 14167 ft 264 kts 315°
2026-05-04 20:58 19.14816 -98.98300 14068 ft 263 kts 315°
2026-05-04 20:59 19.16185 -98.99622 13968 ft 263 kts 315°
2026-05-04 20:59 19.17528 -99.00916 13875 ft 262 kts 315°
2026-05-04 20:59 19.18889 -99.02247 13792 ft 264 kts 314°
2026-05-04 20:59 19.20240 -99.03591 13430 ft 265 kts 314°
2026-05-04 21:00 19.21571 -99.04919 13089 ft 264 kts 314°
2026-05-04 21:00 19.22928 -99.06271 12754 ft 264 kts 314°
2026-05-04 21:00 19.24145 -99.07694 12413 ft 259 kts 301°
2026-05-04 21:00 19.24783 -99.08852 12189 ft 256 kts 292°
2026-05-04 21:01 19.25355 -99.10224 11946 ft 253 kts 290°
2026-05-04 21:01 19.26027 -99.11961 11636 ft 252 kts 290°
2026-05-04 21:01 19.26677 -99.13641 11337 ft 249 kts 290°
2026-05-04 21:01 19.27330 -99.15309 11043 ft 248 kts 290°
2026-05-04 21:02 19.28084 -99.16913 10888 ft 246 kts 306°
2026-05-04 21:02 19.29410 -99.18058 10707 ft 255 kts 330°
2026-05-04 21:02 19.30995 -99.18818 10386 ft 251 kts 333°
2026-05-04 21:02 19.32581 -99.19542 10069 ft 241 kts 333°
2026-05-04 21:03 19.34106 -99.20123 9803 ft 235 kts 351°
2026-05-04 21:03 19.35654 -99.19888 9654 ft 225 kts 23°
2026-05-04 21:03 19.36827 -99.18910 9578 ft 209 kts 49°
2026-05-04 21:03 19.37515 -99.17920 9438 ft 196 kts 57°
2026-05-04 21:04 19.38945 -99.15292 8870 ft 178 kts 60°